Regional Weather Roundup
Issued by NWS

Home | Current Version | Previous Version | Graphics & Text | Print | Product List | Glossary On
Versions: 1 2 3 4 5 6 7 8 9 10 11 12 13 14 15 16 17 18 19 20 21 22 23 24 25 26 27 28 29 30 31 32 33 34 35 36 37 38 39 40 41 42 43 44 45 46 47 48 49 50
000
ASUS43 KMKX 241510
RWRWI

WISCONSIN REGIONAL WEATHER ROUNDUP
NATIONAL WEATHER SERVICE MILWAUKEE/SULLIVAN WI
1000 AM CDT THU JUL 24 2014

NOTE: "FAIR" INDICATES FEW OR NO CLOUDS BELOW 12,000 FEET WITH NO
SIGNIFICANT WEATHER AND/OR OBSTRUCTIONS TO VISIBILITY.

WIZ001-002-006>008-014>016-023>028-241600-
NORTHWEST WISCONSIN

CITY           SKY/WX    TMP DP  RH WIND       PRES   REMARKS
SUPERIOR ARPT  SUNNY     66  56  71 CALM      30.15S
ASHLAND        SUNNY     69  58  67 CALM      30.16S
HAYWARD        SUNNY     70  53  54 S5        30.17R
SIREN          SUNNY     73  55  53 SW5       30.15S
RICE LAKE      SUNNY     69  54  58 S5        30.17F
LADYSMITH      SUNNY     68  58  72 W3        30.19S
EAU CLAIRE     SUNNY     71  55  56 CALM      30.15S
MENOMONIE      PTSUNNY   71  59  66 CALM      30.16F
NEW RICHMOND   SUNNY     73  56  56 S6        30.16S
OSCEOLA        SUNNY     73  57  56 S9        30.17S
$$

WIZ003>005-009-010-017-018-241600-
NORTH CENTRAL WISCONSIN

CITY           SKY/WX    TMP DP  RH WIND       PRES   REMARKS
WOODRUFF       SUNNY     72  58  62 CALM      30.17S
RHINELANDER      N/A    N/A N/A N/A MISG      30.18F
EAGLE RIVER    SUNNY     65  50  58 W5        30.17F
LAND O LAKES   SUNNY     67  51  56 CALM      30.18F
PHILLIPS       SUNNY     68  55  62 S3        30.16F
TOMAHAWK       SUNNY     67  55  65 CALM      30.18F
MEDFORD        SUNNY     65  57  75 CALM      30.17F
MERRILL        SUNNY     67  54  64 CALM      30.18S
$$

WIZ029-030-035-036-043>047-241600-
CENTRAL WISCONSIN

CITY           SKY/WX    TMP DP  RH WIND       PRES   REMARKS
WAUSAU         SUNNY     67  51  56 S6        30.16F
MOSINEE        SUNNY     68  52  56 S5        30.19S
MARSHFIELD     SUNNY     68  54  60 S5        30.17F
STEVENS POINT  SUNNY     67  46  47 S7        30.18F
WAUPACA        SUNNY     71  46  41 SE5       30.18F
WAUTOMA        SUNNY     71  48  43 SE7       30.18F
WISC RAPIDS    SUNNY     70  48  45 SW7       30.18F
CAMP DOUGLAS   MOSUNNY   68  54  60 S6        30.18S
$$

WIZ011>013-019>022-031-037>040-048>050-241600-
NORTHEAST WISCONSIN

CITY           SKY/WX    TMP DP  RH WIND       PRES   REMARKS
ANTIGO         SUNNY     65  53  64 SW5       30.19F
STURGEON BAY   SUNNY     64  48  55 NW5       30.19F
GREEN BAY      SUNNY     70  43  37 CALM      30.18F
MANITOWOC      SUNNY     67  46  47 VRB3      30.19F
APPLETON       SUNNY     66  48  52 CALM      30.19F
CLINTONVILLE   SUNNY     68  46  45 CALM      30.18F
OSHKOSH        SUNNY     67  53  61 E5        30.18F
$$

WIZ032>034-041-042-053>061-241600-
SOUTHWEST WISCONSIN

CITY           SKY/WX    TMP DP  RH WIND       PRES   REMARKS
LA CROSSE      NOT AVBL
SPARTA         SUNNY     70  54  57 SW5       30.18S
VIROQUA        FAIR      69  55  61 S6        30.19R
BOSCOBEL       SUNNY     71  51  49 VRB5      30.18S
PRAIRIE DU CHI SUNNY     70  52  53 SE3       30.17S
PLATTEVILLE    FAIR      68  51  54 SE5       30.20R
$$

WIZ056-057-062-063-064-067-068-241600-
SOUTH CENTRAL WISCONSIN

CITY           SKY/WX    TMP DP  RH WIND       PRES   REMARKS
BARABOO/DELLS  SUNNY     70  46  42 E5        30.18S
LONE ROCK      SUNNY     72  54  53 CALM      30.19S
WATERTOWN      SUNNY     67  49  52 CALM      30.19R
MADISON        MOSUNNY   70  48  45 SE8       30.18F
MIDDLETON      FAIR      72  45  37 E6        30.19S
MONROE         SUNNY     70  48  46 E6        30.18F
JANESVILLE     MOSUNNY   70  48  46 E7        30.18S
$$

WIZ051-052-058>065-066-070>072-241600-
SOUTHEAST WISCONSIN

CITY           SKY/WX    TMP DP  RH WIND       PRES   REMARKS
MILWAUKEE      SUNNY     66  52  60 NE9       30.18F
WAUKESHA       SUNNY     64  48  55 NE6       30.19F
MILWAUKEE/TIMM SUNNY     66  46  48 NE6       30.19F
RACINE         SUNNY     65  55  70 NE9       30.20F
BURLINGTON     SUNNY     65  50  56 NE8       30.18S
KENOSHA        SUNNY     67  53  61 E10       30.18F
FOND DU LAC    SUNNY     69  48  47 NE3       30.18F
SHEBOYGAN      SUNNY     66  49  54 E7        30.19F
WEST BEND      SUNNY     64  45  48 NE5       30.19F
JUNEAU         SUNNY     67  44  43 CALM      30.20S
$$

LSZ147-162-241600-
LAKE SUPERIOR

STATION/POSITION TIME  TEMP    WIND        PRES    WAVE
                       AIR SEA DIR/SP/G            HT/PER
                 (UTC) (F)     (DEG/KT/KT) (MB)    (FT/S)
$$

LMZ867-665-643>646-241600-
LAKE MICHIGAN

STATION/POSITION TIME  TEMP    WIND        PRES    WAVE
                       AIR SEA DIR/SP/G            HT/PER
                 (UTC) (F)     (DEG/KT/KT) (MB)    (FT/S)
$$

TC  - TEMPERATURE IN CELSIUS
VSB - VISIBILITY IN STATUTE MILES
WCI - WIND CHILL INDEX
HX  - HEAT INDEX




USA.gov is the U.S. government's official web portal to all federal, state and local government web resources and services.